Weather History for Kalaeloa, HI

Change the Weather History Date:

Saturday, March 22, 2014

  Actual Average (PHNL) Record (PHNL)
Temperature  
Mean Temperature 76 °F 75 °F  
Max Temperature 82 °F 82 °F 85 °F (1983)
Min Temperature 69 °F 68 °F 61 °F (1957)
Degree Days  
Heating Degree Days 0 0  
Month to date heating degree days 0  
Since 1 July heating degree days 0  
Cooling Degree Days 10 10  
Month to date cooling degree days 203  
Year to date cooling degree days 685  
Growing Degree Days 26 (Base 50)    
Moisture  
Dew Point 61 °F    
Average Humidity 63    
Maximum Humidity 73    
Minimum Humidity 50    
Precipitation  
Precipitation 0.00 in 0.07 in 3.53 in (1955)
Month to date precipitation 1.50  
Year to date precipitation 5.80  
Snow  
Snow 0.00 in - - ()
Month to date snowfall  
Since 1 July snowfall  
Snow Depth -    
Sea Level Pressure  
Sea Level Pressure 30.08 in    
Wind  
Wind Speed 6 mph (NE)    
Max Wind Speed 10 mph    
Max Gust Speed -    
Visibility 10 miles    
Events      
T = Trace of Precipitation, MM = Missing Value Source: NWS Daily Summary

Daily Weather History Graph

Daily Weather History Graph

Search for Another Location

Airport:

Trip Planner

Search our weather history database for the weather conditions in past years. The results will help you decide how hot, cold, wet, or windy it might be!

Date:

Astronomy

Mar. 22, 2014 Rise Set
Actual Time 6:34 AM HST 6:44 PM HST
Civil Twilight 6:12 AM HST 7:06 PM HST
Nautical Twilight 5:46 AM HST 7:32 PM HST
Astronomical Twilight 5:20 AM HST 7:58 PM HST
Moon No Moon Rise 11:03 AM HST (3/22)
Length of Visible Light 12h 54m
Length of Day
12h 09m
Waning Gibbous, 63% of the Moon is Illuminated
Mar 22
Waning Gibbous
Mar 23
Last Quarter
Mar 30
New
Apr 6
First Quarter
Apr 14
Full

Hourly Weather History & Observations

Time (HST) Temp. Heat Index Dew Point Humidity Pressure Visibility Wind Dir Wind Speed Gust Speed Precip Events Conditions
12:53 AM 71.1 °F - 60.1 °F 68% 30.09 in 10.0 mi Variable 6.9 mph - N/A   Clear
1:53 AM 71.1 °F - 59.0 °F 66% 30.08 in 10.0 mi Variable 5.8 mph - N/A   Mostly Cloudy
2:06 AM 69.8 °F - 59.0 °F 68% 30.06 in 10.0 mi Variable 4.6 mph - N/A   Scattered Clouds
2:53 AM 70.0 °F - 59.0 °F 68% 30.06 in 10.0 mi NNE 5.8 mph - N/A   Partly Cloudy
3:53 AM 70.0 °F - 59.0 °F 68% 30.05 in 10.0 mi NNE 8.1 mph - N/A   Clear
4:53 AM 71.1 °F - 60.1 °F 68% 30.06 in 10.0 mi Variable 5.8 mph - N/A   Partly Cloudy
5:29 AM 69.8 °F - 60.8 °F 73% 30.05 in 10.0 mi Variable 5.8 mph - N/A   Partly Cloudy
5:53 AM 70.0 °F - 60.1 °F 71% 30.07 in 10.0 mi Variable 5.8 mph - N/A   Clear
6:53 AM 70.0 °F - 60.1 °F 71% 30.09 in 10.0 mi NNE 6.9 mph - N/A   Clear
7:53 AM 73.0 °F - 60.1 °F 64% 30.10 in 10.0 mi Variable 6.9 mph - N/A   Clear
8:53 AM 77.0 °F - 61.0 °F 58% 30.11 in 10.0 mi Variable 6.9 mph - N/A   Clear
9:53 AM 78.1 °F - 62.1 °F 58% 30.12 in 10.0 mi Variable 6.9 mph - N/A   Clear
10:53 AM 80.1 °F 81.2 °F 62.1 °F 54% 30.11 in 10.0 mi East 10.4 mph - N/A   Clear
11:53 AM 80.1 °F 81.1 °F 61.0 °F 52% 30.10 in 10.0 mi Variable 4.6 mph - N/A   Partly Cloudy
12:53 PM 80.1 °F 81.2 °F 62.1 °F 54% 30.09 in 10.0 mi East 8.1 mph - N/A   Mostly Cloudy
1:53 PM 82.0 °F 83.0 °F 62.1 °F 51% 30.06 in 10.0 mi ENE 9.2 mph - N/A   Partly Cloudy
2:53 PM 81.0 °F 81.7 °F 61.0 °F 50% 30.05 in 10.0 mi Variable 3.5 mph - N/A   Mostly Cloudy
3:53 PM 81.0 °F 81.9 °F 62.1 °F 52% 30.05 in 10.0 mi ENE 5.8 mph - N/A   Overcast
4:53 PM 80.1 °F 81.2 °F 62.1 °F 54% 30.05 in 10.0 mi Variable 6.9 mph - N/A   Mostly Cloudy
5:53 PM 77.0 °F - 62.1 °F 60% 30.06 in 10.0 mi Variable 5.8 mph - N/A   Mostly Cloudy
6:43 PM 73.4 °F - 60.8 °F 65% 30.06 in 10.0 mi Variable 4.6 mph - N/A   Scattered Clouds
6:53 PM 73.0 °F - 61.0 °F 66% 30.08 in 10.0 mi Variable 4.6 mph - N/A   Partly Cloudy
7:53 PM 72.0 °F - 61.0 °F 68% 30.10 in 10.0 mi Variable 3.5 mph - N/A   Clear
8:53 PM 71.1 °F - 60.1 °F 68% 30.12 in 10.0 mi Variable 6.9 mph - N/A   Clear
9:53 PM 71.1 °F - 60.1 °F 68% 30.12 in 10.0 mi Variable 5.8 mph - N/A   Partly Cloudy
10:53 PM 70.0 °F - 60.1 °F 71% 30.12 in 10.0 mi Variable 3.5 mph - N/A   Clear
11:53 PM 71.1 °F - 60.1 °F 68% 30.12 in 10.0 mi Variable 5.8 mph - N/A   Clear